When you browse on this site, cookies collect data to enhance your experience and personalize the content and advertising you see.
Visit our Privacy Policy to learn more. By continuing to use the site, you agree to this use of cookies and data.
  • In Denmark
  • List of Countries
  • For 7 days
  • Water Temperature
  • Satellite Maps
  • Weather Map
  • Weather Widgets
  • user-avatar
    Login

    Hourly Weather Cieniawa

    Today, 15 December, Saturday

    Time Temperature Precipitation Wind Pressure Humidity
    00:00 -4°C° 0 mm 2 mps 719 mmHg 91%
    01:00 -6°C° 0 mm 3 mps 719 mmHg 90%
    02:00 -6°C° 0 mm 3 mps 718 mmHg 89%
    03:00 -6°C° 0 mm 3 mps 718 mmHg 89%
    04:00 -7°C° 0 mm 3 mps 718 mmHg 89%
    05:00 -7°C° 0 mm 3 mps 718 mmHg 88%
    06:00 -7°C° 0 mm 3 mps 718 mmHg 87%
    07:00 -7°C° 0 mm 3 mps 718 mmHg 88%
    08:00 -6°C° 0 mm 3 mps 718 mmHg 85%
    09:00 -7°C° 0 mm 4 mps 718 mmHg 82%
    10:00 -5°C° 0 mm 4 mps 719 mmHg 80%
    11:00 -5°C° 0 mm 4 mps 718 mmHg 79%
    12:00 -5°C° 0 mm 4 mps 718 mmHg 78%
    13:00 -5°C° 0 mm 4 mps 718 mmHg 77%
    14:00 -5°C° 0.1 mm 4 mps 718 mmHg 79%
    15:00 -5°C° 0.1 mm 4 mps 718 mmHg 82%
    16:00 -5°C° 0.1 mm 4 mps 717 mmHg 85%
    17:00 -7°C° 0.4 mm 4 mps 717 mmHg 87%
    18:00 -6°C° 0.4 mm 3 mps 717 mmHg 89%
    19:00 -6°C° 0.4 mm 3 mps 717 mmHg 91%
    20:00 -6°C° 0.3 mm 3 mps 717 mmHg 92%
    21:00 -6°C° 0.3 mm 3 mps 716 mmHg 92%
    22:00 -5°C° 0.3 mm 2 mps 716 mmHg 92%
    23:00 -5°C° 0.2 mm 2 mps 716 mmHg 93%

    Tomorrow, 16 December, Sunday

    Time Temperature Precipitation Wind Pressure Humidity
    00:00 -5°C° 0.2 mm 2 mps 716 mmHg 93%
    01:00 -5°C° 0.2 mm 2 mps 715 mmHg 93%
    02:00 -3°C° 0.3 mm 1 mps 715 mmHg 94%
    03:00 -3°C° 0.3 mm 1 mps 715 mmHg 94%
    04:00 -3°C° 0.3 mm 1 mps 714 mmHg 94%
    05:00 -3°C° 0.3 mm 1 mps 714 mmHg 95%
    06:00 -3°C° 0.3 mm 1 mps 714 mmHg 95%
    07:00 -4°C° 0.3 mm 0 mps 714 mmHg 95%
    08:00 -3°C° 0.1 mm 0 mps 714 mmHg 93%
    09:00 -3°C° 0.1 mm 0 mps 715 mmHg 91%
    10:00 -2°C° 0.1 mm 0 mps 715 mmHg 88%
    11:00 -2°C° 0.1 mm 0 mps 715 mmHg 88%
    12:00 -1°C° 0.1 mm 0 mps 715 mmHg 87%
    13:00 -1°C° 0.1 mm 0 mps 714 mmHg 86%
    14:00 -2°C° 0.1 mm 0 mps 715 mmHg 89%
    15:00 -1°C° 0.1 mm 1 mps 715 mmHg 92%
    16:00 -2°C° 0.1 mm 1 mps 715 mmHg 94%
    17:00 -2°C° 0 mm 1 mps 715 mmHg 94%
    18:00 -2°C° 0 mm 1 mps 715 mmHg 94%
    19:00 -3°C° 0 mm 1 mps 715 mmHg 94%
    20:00 -3°C° 0 mm 1 mps 716 mmHg 93%
    21:00 -3°C° 0 mm 1 mps 716 mmHg 93%
    22:00 -3°C° 0 mm 1 mps 716 mmHg 93%
    23:00 -3°C° 0 mm 1 mps 716 mmHg 93%

    Day after tomorrow, 17 December, Monday

    Time Temperature Precipitation Wind Pressure Humidity
    00:00 -5°C° 0 mm 2 mps 716 mmHg 92%
    01:00 -6°C° 0 mm 2 mps 716 mmHg 92%
    02:00 -6°C° 0 mm 2 mps 716 mmHg 91%
    03:00 -6°C° 0 mm 2 mps 716 mmHg 91%
    04:00 -6°C° 0 mm 2 mps 716 mmHg 90%
    05:00 -4°C° 0 mm 1 mps 716 mmHg 89%
    06:00 -4°C° 0 mm 1 mps 716 mmHg 88%
    07:00 -4°C° 0 mm 1 mps 717 mmHg 87%
    08:00 -3°C° 0 mm 1 mps 717 mmHg 85%
    09:00 -2°C° 0 mm 1 mps 717 mmHg 83%
    10:00 -1°C° 0 mm 1 mps 717 mmHg 80%
    11:00 -2°C° 0 mm 0 mps 718 mmHg 79%
    12:00 -1°C° 0 mm 0 mps 718 mmHg 78%
    13:00 0°C° 0 mm 0 mps 718 mmHg 77%
    14:00 -1°C° 0 mm 0 mps 718 mmHg 79%
    15:00 -2°C° 0 mm 0 mps 718 mmHg 81%
    16:00 -3°C° 0 mm 0 mps 718 mmHg 83%
    17:00 -3°C° 0 mm 0 mps 719 mmHg 84%
    18:00 -2°C° 0 mm 1 mps 719 mmHg 84%
    19:00 -3°C° 0 mm 1 mps 719 mmHg 84%
    20:00 -3°C° 0 mm 1 mps 720 mmHg 85%
    21:00 -3°C° 0 mm 1 mps 720 mmHg 86%
    22:00 -3°C° 0 mm 1 mps 720 mmHg 87%
    23:00 -3°C° 0 mm 1 mps 720 mmHg 88%

    18 December, Tuesday

    Time Temperature Precipitation Wind Pressure Humidity
    00:00 -3°C° 0 mm 1 mps 720 mmHg 89%
    01:00 -3°C° 0 mm 1 mps 720 mmHg 89%
    02:00 -3°C° 0 mm 1 mps 720 mmHg 90%
    03:00 -3°C° 0 mm 1 mps 721 mmHg 90%
    04:00 -3°C° 0 mm 1 mps 721 mmHg 90%
    05:00 -3°C° 0 mm 1 mps 721 mmHg 91%
    06:00 -3°C° 0 mm 1 mps 721 mmHg 91%
    07:00 -3°C° 0 mm 1 mps 722 mmHg 92%
    08:00 -2°C° 0 mm 1 mps 722 mmHg 90%
    09:00 -2°C° 0 mm 1 mps 722 mmHg 89%
    10:00 -2°C° 0 mm 0 mps 722 mmHg 88%
    11:00 0°C° 0 mm 1 mps 722 mmHg 88%
    12:00 0°C° 0 mm 1 mps 722 mmHg 88%
    13:00 +1°C° 0 mm 1 mps 722 mmHg 87%
    14:00 0°C° 0 mm 1 mps 722 mmHg 90%
    15:00 -1°C° 0 mm 1 mps 722 mmHg 93%
    16:00 -2°C° 0 mm 1 mps 722 mmHg 95%
    17:00 -2°C° 0 mm 1 mps 722 mmHg 95%
    18:00 -2°C° 0 mm 1 mps 722 mmHg 95%
    19:00 -2°C° 0 mm 1 mps 722 mmHg 96%
    20:00 -2°C° 0 mm 1 mps 722 mmHg 95%
    21:00 -2°C° 0 mm 1 mps 722 mmHg 95%
    22:00 -2°C° 0 mm 1 mps 722 mmHg 95%
    23:00 -2°C° 0 mm 1 mps 722 mmHg 95%

    19 December, Wednesday

    Time Temperature Precipitation Wind Pressure Humidity
    00:00 -2°C° 0 mm 1 mps 722 mmHg 95%
    01:00 -2°C° 0 mm 1 mps 721 mmHg 95%
    02:00 -3°C° 0 mm 1 mps 721 mmHg 95%
    03:00 -3°C° 0 mm 1 mps 721 mmHg 96%
    04:00 -3°C° 0 mm 1 mps 721 mmHg 96%
    05:00 -3°C° 0 mm 1 mps 721 mmHg 95%
    06:00 -3°C° 0 mm 1 mps 721 mmHg 95%
    07:00 -3°C° 0 mm 1 mps 721 mmHg 94%
    08:00 -3°C° 0 mm 1 mps 721 mmHg 92%
    09:00 -4°C° 0 mm 2 mps 721 mmHg 89%
    10:00 -4°C° 0 mm 2 mps 721 mmHg 87%
    11:00 -4°C° 0 mm 2 mps 721 mmHg 86%
    12:00 -3°C° 0 mm 2 mps 721 mmHg 85%
    13:00 -3°C° 0 mm 2 mps 721 mmHg 84%
    14:00 -4°C° 0 mm 2 mps 721 mmHg 87%
    15:00 -4°C° 0 mm 2 mps 721 mmHg 90%
    16:00 -5°C° 0 mm 2 mps 721 mmHg 92%
    17:00 -5°C° 0 mm 2 mps 721 mmHg 93%
    18:00 -6°C° 0 mm 2 mps 721 mmHg 93%
    19:00 -6°C° 0 mm 2 mps 721 mmHg 93%
    20:00 -6°C° 0 mm 2 mps 721 mmHg 94%
    21:00 -7°C° 0 mm 2 mps 721 mmHg 94%
    22:00 -7°C° 0 mm 2 mps 721 mmHg 94%
    23:00 -8°C° 0 mm 2 mps 721 mmHg 94%

    20 December, Thursday

    Time Temperature Precipitation Wind Pressure Humidity
    00:00 -8°C° 0 mm 2 mps 721 mmHg 94%
    01:00 -7°C° 0 mm 1 mps 721 mmHg 93%
    02:00 -7°C° 0 mm 1 mps 721 mmHg 92%
    03:00 -7°C° 0 mm 1 mps 721 mmHg 92%
    04:00 -7°C° 0 mm 1 mps 721 mmHg 91%
    05:00 -7°C° 0 mm 1 mps 721 mmHg 90%
    06:00 -7°C° 0 mm 1 mps 721 mmHg 90%
    07:00 -7°C° 0 mm 1 mps 721 mmHg 90%
    08:00 -6°C° 0 mm 1 mps 721 mmHg 87%
    09:00 -4°C° 0 mm 1 mps 722 mmHg 85%
    10:00 -3°C° 0 mm 1 mps 722 mmHg 83%
    11:00 -2°C° 0 mm 1 mps 722 mmHg 82%
    12:00 -4°C° 0 mm 2 mps 722 mmHg 82%
    13:00 -3°C° 0 mm 2 mps 722 mmHg 81%
    14:00 -2°C° 0 mm 1 mps 721 mmHg 84%
    15:00 -3°C° 0 mm 1 mps 721 mmHg 88%
    16:00 -4°C° 0 mm 1 mps 721 mmHg 91%
    17:00 -4°C° 0 mm 1 mps 721 mmHg 91%
    18:00 -6°C° 0 mm 1 mps 721 mmHg 92%
    19:00 -7°C° 0 mm 2 mps 721 mmHg 92%
    20:00 -6°C° 0 mm 1 mps 722 mmHg 92%
    21:00 -6°C° 0 mm 1 mps 722 mmHg 92%
    22:00 -6°C° 0 mm 1 mps 722 mmHg 91%
    23:00 -6°C° 0 mm 1 mps 722 mmHg 92%
    Show more